Le nostre stazioni meteo in Italia

Pubblicità
Il mio iltempo24.it
Catania/Fontanarossa, Italia (16460): Temperatura & dewpoint: 19.01.2020 05:00:00 - 25.01.2020 05:00:00 (CET)Catania/Fontanarossa, Italia (16460): velocità del vento: 19.01.2020 05:00:00 - 25.01.2020 05:00:00 (CET)Catania/Fontanarossa, Italia (16460): direzione del vento: 19.01.2020 05:00:00 - 25.01.2020 05:00:00 (CET)Catania/Fontanarossa, Italia (16460): reduced air pressure: 19.01.2020 05:00:00 - 25.01.2020 05:00:00 (CET)Catania/Fontanarossa, Italia (16460): visibility: 19.01.2020 05:00:00 - 25.01.2020 05:00:00 (CET)Catania/Fontanarossa, Italia (16460): precipitazioni: 19.01.2020 05:00:00 - 25.01.2020 05:00:00 (CET)
Data & Tempo tt [°C] td [°C] ff [km/h] ff [kn] dd ppp [hPa] vv [km] rr [mm]
25.01.2020 05:00:00 9,0 8,0 9 5 OSO - 8 -
25.01.2020 04:00:00 8,5 7,7 11 6 O 1026,3 9 0,0
25.01.2020 03:00:00 8,0 7,0 5 3 SO - 9 -
25.01.2020 02:00:00 7,0 6,0 4 2 - - 10 -
25.01.2020 01:00:00 7,6 6,3 9 5 SO 1027,6 10 -
25.01.2020 00:00:00 12,0 8,0 8 4 ONO - 10 -
24.01.2020 23:00:00 10,0 8,0 5 3 NO - 10 -
24.01.2020 22:00:00 12,9 8,7 2 1 - 1028,0 10 0,0
24.01.2020 21:00:00 14,0 9,0 2 1 SE - 10 -
24.01.2020 20:00:00 14,0 9,0 4 2 S - 10 -
24.01.2020 19:00:00 13,7 7,3 8 4 SSO 1028,3 10 -
24.01.2020 18:00:00 14,0 8,0 5 3 S - 10 -
24.01.2020 17:00:00 14,0 9,0 4 2 - - 10 -
24.01.2020 16:00:00 15,0 10,0 4 2 - - 10 -
24.01.2020 15:00:00 15,0 9,0 5 3 E - 10 -
24.01.2020 14:00:00 15,0 9,0 8 4 ESE - 10 -
24.01.2020 13:00:00 14,9 8,7 8 4 SSE 1029,1 10 -
24.01.2020 12:00:00 15,0 10,0 2 1 - - 10 -
24.01.2020 11:00:00 12,0 10,0 8 4 OSO - 9 -
24.01.2020 10:00:00 10,7 9,5 5 3 O 1030,2 9 0,0
24.01.2020 09:00:00 9,0 8,0 8 4 SO - 8 -
24.01.2020 08:00:00 9,0 8,0 9 5 SO - 8 -
24.01.2020 07:00:00 8,3 7,6 8 4 O 1029,1 8 -
24.01.2020 06:00:00 8,0 7,0 5 3 SO - 8 -
24.01.2020 05:00:00 7,0 7,0 8 4 OSO - 8 -
24.01.2020 04:00:00 6,2 5,7 4 2 OSO 1028,8 8 0,0
24.01.2020 03:00:00 5,0 5,0 8 4 SO - 7 -
24.01.2020 02:00:00 4,0 4,0 8 4 OSO - 6 -
24.01.2020 01:00:00 4,8 4,1 8 4 OSO 1029,0 6 -
24.01.2020 00:00:00 6,0 5,0 8 4 OSO - 10 -
23.01.2020 23:00:00 6,0 4,0 5 3 OSO - 10 -
23.01.2020 22:00:00 7,0 4,7 8 4 OSO 1028,7 10 0,0
23.01.2020 21:00:00 11,0 6,0 8 4 NNE - 10 -
23.01.2020 20:00:00 13,0 8,0 8 4 NNE - 10 -
23.01.2020 19:00:00 13,0 8,6 8 4 NE 1028,1 10 -
23.01.2020 18:00:00 14,0 9,0 11 6 NE - 10 -
23.01.2020 17:00:00 14,0 9,0 13 7 NE - 10 -
23.01.2020 16:00:00 14,7 9,3 15 8 NE 1027,8 10 0,0
23.01.2020 15:00:00 17,0 8,0 13 7 OSO - 10 -
23.01.2020 14:00:00 17,0 7,0 13 7 O - 10 -
23.01.2020 13:00:00 16,4 6,8 11 6 O 1028,1 10 -
23.01.2020 12:00:00 16,0 6,0 11 6 O - 10 -
23.01.2020 11:00:00 14,0 10,0 13 7 SSO - 10 -
23.01.2020 10:00:00 12,3 9,4 11 6 SO 1029,7 10 0,0
23.01.2020 09:00:00 8,0 7,0 9 5 SO - 10 -
23.01.2020 08:00:00 5,0 4,0 11 6 SO - 10 -
23.01.2020 07:00:00 4,6 4,0 13 7 OSO 1029,1 10 -
23.01.2020 06:00:00 5,0 4,0 13 7 OSO - 10 -
23.01.2020 05:00:00 4,0 4,0 11 6 OSO - 8 -
23.01.2020 04:00:00 4,8 4,4 13 7 OSO 1029,0 8 0,0
23.01.2020 03:00:00 5,0 5,0 9 5 SO - 8 -
23.01.2020 02:00:00 5,0 5,0 11 6 OSO - 7 -
23.01.2020 01:00:00 5,2 4,8 8 4 O 1030,1 7 -
23.01.2020 00:00:00 6,0 5,0 8 4 SO - 8 -
22.01.2020 23:00:00 7,0 6,0 5 3 OSO - 8 -
22.01.2020 22:00:00 7,5 6,8 5 3 O 1030,5 8 0,0
22.01.2020 21:00:00 9,0 8,0 4 2 ONO - 10 -
22.01.2020 20:00:00 11,0 10,0 4 2 NNO - 10 -
22.01.2020 19:00:00 12,1 10,0 4 2 - 1030,9 10 -
22.01.2020 18:00:00 13,0 10,0 2 1 - - 10 -
22.01.2020 17:00:00 13,0 10,0 8 4 SSO - 10 -
22.01.2020 16:00:00 14,0 10,1 5 3 SSE 1031,5 10 0,0
22.01.2020 15:00:00 14,0 10,0 8 4 ESE - 10 -
22.01.2020 14:00:00 14,0 10,0 8 4 E - 10 -
22.01.2020 13:00:00 13,9 9,7 9 5 ESE 1033,6 10 -
22.01.2020 12:00:00 14,0 10,0 11 6 E - 10 -
22.01.2020 11:00:00 14,0 10,0 11 6 E - 10 -
22.01.2020 10:00:00 13,8 9,5 13 7 E 1035,4 10 0,0
22.01.2020 09:00:00 13,0 9,0 15 8 E - 10 -
22.01.2020 08:00:00 13,0 10,0 13 7 E - 10 -
22.01.2020 07:00:00 13,1 9,8 15 8 E 1034,8 10 -
22.01.2020 06:00:00 13,0 10,0 15 8 E - 10 -
22.01.2020 05:00:00 13,0 10,0 18 10 E - 10 -
22.01.2020 04:00:00 13,2 9,9 22 12 E 1034,5 10 0,0
22.01.2020 03:00:00 13,0 10,0 22 12 E - 10 -
22.01.2020 02:00:00 13,0 10,0 24 13 E - 10 -
22.01.2020 01:00:00 13,5 9,5 21 11 E 1035,3 10 -
22.01.2020 00:00:00 13,0 10,0 22 12 E - 10 -
21.01.2020 23:00:00 14,0 10,0 24 13 E - 10 -
21.01.2020 22:00:00 13,5 10,2 28 15 E 1035,9 10 0,0
21.01.2020 21:00:00 13,0 10,0 28 15 E - 10 -
21.01.2020 20:00:00 13,0 11,0 29 16 E - 10 -
21.01.2020 19:00:00 13,1 10,4 34 18 E 1035,5 10 -
21.01.2020 18:00:00 13,0 11,0 34 18 E - 8 -
21.01.2020 17:00:00 13,0 11,0 37 20 E - 7 -
21.01.2020 16:00:00 12,5 11,6 37 20 E 1035,8 8 0,0
21.01.2020 15:00:00 13,0 12,0 37 20 E - 7 -
21.01.2020 14:00:00 13,0 12,0 34 18 E - 7 -
21.01.2020 13:00:00 13,1 11,9 39 21 E 1036,4 6 -
21.01.2020 12:00:00 13,0 12,0 39 21 E - 4,0 -
21.01.2020 11:00:00 13,0 12,0 39 21 E - 4,0 -
21.01.2020 10:00:00 12,5 11,6 41 22 E 1037,0 3,0 0,0
21.01.2020 09:00:00 13,0 12,0 42 23 E - 6 -
21.01.2020 08:00:00 13,0 12,0 41 22 ENE - 3,0 -
21.01.2020 07:00:00 12,7 12,0 34 18 ENE 1035,7 5 -
21.01.2020 06:00:00 13,0 12,0 31 17 ENE - 5 -
21.01.2020 05:00:00 13,0 12,0 26 14 E - 5 -
21.01.2020 04:00:00 13,0 12,2 26 14 E 1035,1 4,0 0,0
21.01.2020 03:00:00 13,0 12,0 41 22 ENE - 7 -
21.01.2020 02:00:00 14,0 12,0 39 21 ENE - 10 -
21.01.2020 01:00:00 13,9 11,2 37 20 ENE 1035,0 10 -
21.01.2020 00:00:00 14,0 12,0 34 18 ENE - 10 -
20.01.2020 23:00:00 14,0 12,0 35 19 ENE - 10 -
20.01.2020 22:00:00 14,1 11,7 37 20 ENE 1034,6 10 0,0
20.01.2020 21:00:00 - - - - - - - -
20.01.2020 20:00:00 14,0 11,0 39 21 ENE - 10 -
20.01.2020 19:00:00 14,0 11,0 39 21 E 1032,9 10 -
20.01.2020 18:00:00 14,0 11,0 41 22 E - 10 -
20.01.2020 17:00:00 14,0 11,0 37 20 E - 10 -
20.01.2020 16:00:00 14,5 11,1 37 20 E 1031,5 10 0,0
20.01.2020 15:00:00 14,0 12,0 35 19 ENE - 8 -
20.01.2020 14:00:00 15,0 11,0 29 16 E - 10 -
20.01.2020 13:00:00 15,5 10,1 28 15 E 1031,5 10 -
20.01.2020 12:00:00 15,0 11,0 34 18 E - 10 -
20.01.2020 11:00:00 15,0 10,0 28 15 E - 10 -
20.01.2020 10:00:00 15,1 9,7 31 17 E 1031,0 10 0,0
20.01.2020 09:00:00 8,0 8,0 8 4 - - 10 -
20.01.2020 08:00:00 5,0 4,0 8 4 O - 10 -
20.01.2020 07:00:00 5,3 4,2 4 2 - 1028,8 10 -
20.01.2020 06:00:00 4,0 3,0 5 3 OSO - 10 -
20.01.2020 05:00:00 4,0 3,0 9 5 OSO - 10 -
20.01.2020 04:00:00 4,6 3,5 5 3 SO 1027,9 10 0,0
20.01.2020 03:00:00 5,0 4,0 11 6 OSO - 10 -
20.01.2020 02:00:00 3,0 2,0 9 5 OSO - 10 -
20.01.2020 01:00:00 4,7 3,4 5 3 OSO 1027,0 10 -
20.01.2020 00:00:00 6,0 4,0 9 5 OSO - 10 -
19.01.2020 23:00:00 10,0 5,0 2 1 - - 10 -
19.01.2020 22:00:00 11,9 6,0 5 3 NE 1025,9 10 0,0
19.01.2020 21:00:00 11,0 6,0 5 3 NNE - 10 -
19.01.2020 20:00:00 12,0 6,0 4 2 - - 10 -
19.01.2020 19:00:00 11,5 5,0 8 4 ESE 1024,5 10 -
19.01.2020 18:00:00 12,0 6,0 8 4 E - 10 -
19.01.2020 17:00:00 14,0 7,0 11 6 E - 10 -
19.01.2020 16:00:00 15,0 5,8 16 9 E 1022,1 10 0,0
19.01.2020 15:00:00 16,0 5,0 16 9 E - 10 -
19.01.2020 14:00:00 16,0 4,0 15 8 E - 10 -
19.01.2020 13:00:00 15,7 2,5 11 6 ESE 1021,9 10 -
19.01.2020 12:00:00 16,0 2,0 5 3 OSO - 10 -
19.01.2020 11:00:00 13,0 5,0 13 7 SO - 10 -
19.01.2020 10:00:00 11,8 4,7 9 5 SO 1022,9 10 0,0
19.01.2020 09:00:00 7,0 3,0 8 4 OSO - 10 -
19.01.2020 08:00:00 4,0 2,0 13 7 OSO - 10 -
19.01.2020 07:00:00 4,2 1,9 5 3 SO 1022,2 10 -
19.01.2020 06:00:00 5,0 2,0 22 12 O - 10 -
19.01.2020 05:00:00 5,0 3,0 16 9 SO - 10 -

tt = Temperatura
td = dewpoint
ff = velocità del vento
dd = direzione del vento
ppp = reduced air pressure
vv = visibility
rr = precipitazioni

Stazioni seguenti

WeatherPro
AMSI
MeteoEarth